When you browse on this site, cookies collect data to enhance your experience and personalize the content and advertising you see.
Visit our Privacy Policy to learn more. By continuing to use the site, you agree to this use of cookies and data.
  • In Romania
  • List of Countries
  • For 7 days
  • Water Temperature
  • Satellite Maps
  • Weather Map
  • Weather Widgets
  • user-avatar
    Login

    Hourly Weather Achtrup

    Today, 25 April, Thursday

    Time Temperature Precipitation Wind Pressure Humidity
    00:00 +14°C° 0.2 mm 6 mps 752 mmHg 82%
    01:00 +14°C° 0 mm 6 mps 752 mmHg 84%
    02:00 +13°C° 0.4 mm 5 mps 752 mmHg 88%
    03:00 +12°C° 0.4 mm 4 mps 753 mmHg 92%
    04:00 +11°C° 0.4 mm 4 mps 753 mmHg 97%
    05:00 +11°C° 0 mm 4 mps 754 mmHg 95%
    06:00 +11°C° 0 mm 3 mps 754 mmHg 93%
    07:00 +11°C° 0 mm 3 mps 755 mmHg 92%
    08:00 +13°C° 0 mm 3 mps 755 mmHg 84%
    09:00 +14°C° 0 mm 3 mps 755 mmHg 77%
    10:00 +15°C° 0 mm 4 mps 756 mmHg 70%
    11:00 +17°C° 0 mm 4 mps 756 mmHg 63%
    12:00 +18°C° 0 mm 4 mps 756 mmHg 57%
    13:00 +19°C° 0 mm 4 mps 756 mmHg 51%
    14:00 +20°C° 0 mm 4 mps 756 mmHg 51%
    15:00 +20°C° 0 mm 4 mps 756 mmHg 52%
    16:00 +20°C° 0 mm 4 mps 756 mmHg 52%
    17:00 +19°C° 0 mm 4 mps 756 mmHg 57%
    18:00 +18°C° 0 mm 4 mps 756 mmHg 62%
    19:00 +17°C° 0 mm 3 mps 756 mmHg 66%
    20:00 +17°C° 0 mm 4 mps 756 mmHg 67%
    21:00 +15°C° 0 mm 5 mps 756 mmHg 68%
    22:00 +14°C° 0 mm 5 mps 756 mmHg 69%
    23:00 +14°C° 0 mm 6 mps 756 mmHg 70%

    Tomorrow, 26 April, Friday

    Time Temperature Precipitation Wind Pressure Humidity
    00:00 +14°C° 0 mm 6 mps 756 mmHg 71%
    01:00 +13°C° 0 mm 6 mps 756 mmHg 71%
    02:00 +13°C° 0 mm 6 mps 756 mmHg 70%
    03:00 +13°C° 0 mm 5 mps 755 mmHg 70%
    04:00 +13°C° 0 mm 5 mps 755 mmHg 69%
    05:00 +13°C° 0.2 mm 4 mps 755 mmHg 73%
    06:00 +12°C° 0.2 mm 3 mps 755 mmHg 77%
    07:00 +12°C° 0.2 mm 3 mps 755 mmHg 81%
    08:00 +13°C° 0.9 mm 2 mps 755 mmHg 84%
    09:00 +13°C° 0.9 mm 2 mps 756 mmHg 86%
    10:00 +14°C° 0.9 mm 2 mps 756 mmHg 89%
    11:00 +13°C° 0.4 mm 2 mps 756 mmHg 90%
    12:00 +12°C° 0.4 mm 3 mps 756 mmHg 91%
    13:00 +11°C° 0.4 mm 4 mps 756 mmHg 92%
    14:00 +11°C° 0.1 mm 4 mps 756 mmHg 92%
    15:00 +10°C° 0.1 mm 5 mps 756 mmHg 93%
    16:00 +9°C° 0.1 mm 5 mps 756 mmHg 93%
    17:00 +9°C° 0.3 mm 5 mps 756 mmHg 93%
    18:00 +8°C° 0.3 mm 5 mps 757 mmHg 93%
    19:00 +8°C° 0.3 mm 4 mps 757 mmHg 93%
    20:00 +8°C° 0.1 mm 4 mps 757 mmHg 93%
    21:00 +8°C° 0.1 mm 4 mps 757 mmHg 93%
    22:00 +9°C° 0.1 mm 3 mps 757 mmHg 94%
    23:00 +8°C° 0 mm 3 mps 757 mmHg 94%

    Day after tomorrow, 27 April, Saturday

    Time Temperature Precipitation Wind Pressure Humidity
    00:00 +8°C° 0 mm 3 mps 757 mmHg 94%
    01:00 +7°C° 0 mm 3 mps 757 mmHg 94%
    02:00 +7°C° 0 mm 3 mps 757 mmHg 93%
    03:00 +7°C° 0 mm 3 mps 757 mmHg 92%
    04:00 +7°C° 0 mm 3 mps 756 mmHg 90%
    05:00 +8°C° 0 mm 3 mps 756 mmHg 89%
    06:00 +8°C° 0 mm 3 mps 756 mmHg 87%
    07:00 +9°C° 0 mm 3 mps 756 mmHg 86%
    08:00 +10°C° 0 mm 3 mps 756 mmHg 83%
    09:00 +11°C° 0 mm 4 mps 756 mmHg 81%
    10:00 +12°C° 0 mm 4 mps 756 mmHg 78%
    11:00 +12°C° 0 mm 4 mps 756 mmHg 74%
    12:00 +13°C° 0 mm 4 mps 756 mmHg 70%
    13:00 +13°C° 0 mm 5 mps 756 mmHg 65%
    14:00 +13°C° 0 mm 4 mps 756 mmHg 68%
    15:00 +12°C° 0 mm 4 mps 756 mmHg 70%
    16:00 +12°C° 0 mm 3 mps 756 mmHg 73%
    17:00 +11°C° 0 mm 3 mps 756 mmHg 76%
    18:00 +10°C° 0 mm 2 mps 757 mmHg 79%
    19:00 +11°C° 0 mm 1 mps 757 mmHg 82%
    20:00 +10°C° 0 mm 1 mps 757 mmHg 85%
    21:00 +9°C° 0 mm 1 mps 758 mmHg 87%
    22:00 +8°C° 0 mm 1 mps 758 mmHg 89%
    23:00 +9°C° 0 mm 1 mps 758 mmHg 89%

    28 April, Sunday

    Time Temperature Precipitation Wind Pressure Humidity
    00:00 +9°C° 0 mm 1 mps 759 mmHg 88%
    01:00 +9°C° 0 mm 1 mps 759 mmHg 87%
    02:00 +9°C° 0.1 mm 1 mps 759 mmHg 88%
    03:00 +9°C° 0.1 mm 1 mps 760 mmHg 90%
    04:00 +9°C° 0.1 mm 1 mps 760 mmHg 91%
    05:00 +9°C° 0.7 mm 1 mps 760 mmHg 92%
    06:00 +9°C° 0.7 mm 1 mps 761 mmHg 93%
    07:00 +9°C° 0.7 mm 1 mps 761 mmHg 94%
    08:00 +9°C° 1.8 mm 1 mps 761 mmHg 95%
    09:00 +9°C° 1.8 mm 1 mps 762 mmHg 95%
    10:00 +8°C° 1.8 mm 2 mps 762 mmHg 96%
    11:00 +9°C° 0.5 mm 2 mps 762 mmHg 93%
    12:00 +9°C° 0.5 mm 2 mps 762 mmHg 90%
    13:00 +10°C° 0.5 mm 3 mps 763 mmHg 86%
    14:00 +11°C° 0 mm 3 mps 763 mmHg 85%
    15:00 +12°C° 0 mm 2 mps 763 mmHg 84%
    16:00 +12°C° 0 mm 2 mps 763 mmHg 82%
    17:00 +12°C° 0 mm 2 mps 763 mmHg 84%
    18:00 +10°C° 0 mm 2 mps 764 mmHg 86%
    19:00 +11°C° 0 mm 1 mps 764 mmHg 88%
    20:00 +9°C° 0 mm 2 mps 764 mmHg 90%
    21:00 +8°C° 0 mm 2 mps 765 mmHg 91%
    22:00 +8°C° 0 mm 2 mps 765 mmHg 93%
    23:00 +8°C° 0 mm 2 mps 765 mmHg 93%

    29 April, Monday

    Time Temperature Precipitation Wind Pressure Humidity
    00:00 +8°C° 0 mm 2 mps 766 mmHg 92%
    01:00 +8°C° 0 mm 2 mps 766 mmHg 92%
    02:00 +8°C° 0.1 mm 2 mps 766 mmHg 93%
    03:00 +8°C° 0.1 mm 2 mps 766 mmHg 94%
    04:00 +8°C° 0.1 mm 3 mps 766 mmHg 95%
    05:00 +8°C° 0.3 mm 3 mps 766 mmHg 95%
    06:00 +7°C° 0.3 mm 4 mps 766 mmHg 95%
    07:00 +7°C° 0.3 mm 4 mps 766 mmHg 94%
    08:00 +7°C° 0.1 mm 4 mps 766 mmHg 91%
    09:00 +8°C° 0.1 mm 5 mps 766 mmHg 88%
    10:00 +8°C° 0.1 mm 5 mps 766 mmHg 85%
    11:00 +10°C° 0 mm 5 mps 767 mmHg 80%
    12:00 +12°C° 0 mm 4 mps 767 mmHg 75%
    13:00 +13°C° 0 mm 4 mps 767 mmHg 69%
    14:00 +13°C° 0 mm 4 mps 767 mmHg 69%
    15:00 +13°C° 0 mm 4 mps 767 mmHg 69%
    16:00 +13°C° 0 mm 4 mps 767 mmHg 69%
    17:00 +13°C° 0 mm 4 mps 767 mmHg 73%
    18:00 +12°C° 0 mm 3 mps 767 mmHg 76%
    19:00 +12°C° 0 mm 2 mps 767 mmHg 79%
    20:00 +10°C° 0 mm 2 mps 767 mmHg 83%
    21:00 +8°C° 0 mm 2 mps 767 mmHg 86%
    22:00 +7°C° 0 mm 2 mps 768 mmHg 89%
    23:00 +6°C° 0 mm 2 mps 768 mmHg 88%

    30 April, Tuesday

    Time Temperature Precipitation Wind Pressure Humidity
    00:00 +6°C° 0 mm 2 mps 768 mmHg 88%
    01:00 +5°C° 0 mm 2 mps 768 mmHg 87%
    02:00 +5°C° 0 mm 2 mps 768 mmHg 86%
    03:00 +5°C° 0 mm 2 mps 768 mmHg 85%
    04:00 +5°C° 0 mm 2 mps 768 mmHg 84%
    05:00 +6°C° 0 mm 2 mps 768 mmHg 80%
    06:00 +6°C° 0 mm 2 mps 768 mmHg 77%
    07:00 +7°C° 0 mm 2 mps 768 mmHg 73%
    08:00 +9°C° 0 mm 3 mps 768 mmHg 66%
    09:00 +10°C° 0 mm 3 mps 768 mmHg 60%
    10:00 +12°C° 0 mm 4 mps 768 mmHg 54%
    11:00 +12°C° 0 mm 4 mps 768 mmHg 50%
    12:00 +13°C° 0 mm 4 mps 767 mmHg 47%
    13:00 +13°C° 0 mm 4 mps 767 mmHg 44%
    14:00 +13°C° 0 mm 4 mps 767 mmHg 44%
    15:00 +13°C° 0 mm 4 mps 767 mmHg 45%
    16:00 +13°C° 0 mm 4 mps 767 mmHg 46%
    17:00 +12°C° 0 mm 3 mps 767 mmHg 52%
    18:00 +11°C° 0 mm 3 mps 767 mmHg 58%
    19:00 +10°C° 0 mm 2 mps 767 mmHg 64%
    20:00 +8°C° 0 mm 2 mps 767 mmHg 66%
    21:00 +7°C° 0 mm 2 mps 767 mmHg 69%
    22:00 +6°C° 0 mm 1 mps 767 mmHg 71%
    23:00 +6°C° 0 mm 1 mps 767 mmHg 72%
    Show more